[[{"header":{"parameterUnit":"m.s-1","parameterCategory":1,"la1":30.2991,"la2":30.254,"lo1":-89.0895,"lo2":-89.0444,"dy":0.0017,"dx":0.0017,"nx":28,"ny":28,"refTime":"2023-08-09T09:00:00:Z","depth":0,"parameterNumber":2,"parameterNumberName":"U-component_of_WINDS"},"data":[0,0,0,0,0,0,0,0,0,0,0,0,0,0,0,0,0,0,0,0,0,0,0,0,0,0,0,0,0,0,0,0,0,0,0,0,0,0,0,0,0,0,0,0,0,0,0,0,0,0,0,0,0,0,0,0,0,0,5.6028,5.6029,0,5.6165,5.6167,5.6168,5.612,5.6117,5.6114,5.6111,5.6251,5.6258,5.6264,0,0,0,0,0,0,0,0,0,0,0,0,0,5.572,5.5726,5.6027,5.6029,5.6031,5.6165,5.6167,5.6169,5.6121,5.6117,5.6113,5.611,5.6249,5.6257,5.6265,0,0,0,0,0,0,0,0,0,0,0,0,0,5.5855,5.5728,5.6027,5.6023,5.6024,5.6164,5.6167,5.6169,5.6122,5.6117,5.6113,5.6108,5.6246,5.6256,5.6266,5.6417,0,0,5.6296,5.63,0,0,0,0,0,0,0,0,5.5847,5.5866,5.6022,5.6024,5.6025,5.6121,5.6109,5.6252,5.6123,5.6085,5.6111,5.6106,5.6211,5.6224,5.626,5.6424,5.643,5.6297,5.6303,5.6307,5.631,0,0,0,0,0,0,0,5.5838,5.586,5.6082,5.6024,5.6026,5.6013,5.6028,5.6136,5.6172,5.6088,5.6085,5.6102,5.6211,5.625,5.6262,5.6432,5.6296,5.6305,5.6311,5.6315,5.6722,5.6727,0,0,0,0,0,0,5.5828,5.5853,5.6077,5.6086,5.5923,5.6023,5.6038,5.6095,5.6171,5.6178,5.6105,5.6099,5.6236,5.6251,5.6267,5.6445,5.6307,5.6316,5.6322,5.6717,5.6723,5.6728,0,0,0,0,0,0,5.5822,5.5849,5.6072,5.5969,5.5996,5.6033,5.6096,5.61,5.6139,5.6184,5.619,5.6139,5.6233,5.6253,5.6379,5.645,5.632,5.6329,5.6711,5.6719,5.6726,5.6806,0,0,0,0,0,0,5.5813,5.5847,5.5906,5.597,5.6002,5.6183,5.6101,5.6106,5.6156,5.6149,5.6217,5.6224,5.6231,5.6365,5.6389,5.6461,5.6337,5.6705,5.6715,5.6723,5.6797,5.6815,5.683,0,0,0,0,0,5.5802,5.5924,5.5909,5.5937,5.6077,5.6187,5.6205,5.6211,5.6162,5.622,5.6249,5.6221,5.6439,5.6378,5.6405,5.6481,5.67,5.6712,5.6723,5.6789,5.6811,5.683,0,0,0,0,0,0,5.5868,5.5933,5.5917,5.6063,5.612,5.6179,5.6253,5.6235,5.6307,5.6297,5.6301,5.6317,5.6445,5.6476,5.6407,5.6629,5.6562,5.6579,5.6604,5.6625,5.6641,5.663,5.6345,0,0,0,0,0,5.5899,5.5985,5.6036,5.616,5.619,5.6217,5.6265,5.6265,5.6324,5.6347,5.6385,5.6443,5.6523,5.6576,5.6654,5.6802,5.6814,5.6867,5.6884,5.6898,5.6911,5.6987,5.701,5.6765,5.6765,5.6764,0,0,5.5965,5.6011,5.6065,5.6174,5.6218,5.6304,5.6237,5.6333,5.6396,5.6362,5.6481,5.6511,5.6575,5.6712,5.6774,5.6741,5.6981,5.6912,5.6922,5.6928,5.7,5.7023,5.7044,5.6772,5.6771,5.677,0,0,5.6128,5.6173,5.6279,5.6323,5.639,5.6407,5.6432,5.6494,5.6512,5.6632,5.6607,5.6682,5.6823,5.6868,5.6909,5.7086,5.7061,5.7111,5.7197,5.7271,5.729,5.7307,5.7365,5.7387,5.7125,5.7125,5.7125,0,5.62,5.633,5.6335,5.6431,5.6478,5.6451,5.6556,5.66,5.6689,5.6721,5.6684,5.6856,5.6898,5.7042,5.7084,5.7121,5.7147,5.7102,5.7287,5.7304,5.732,5.7375,5.7398,5.713,5.713,5.7129,5.7129,0,5.6414,5.6504,5.6582,5.6666,5.6723,5.6823,5.6841,5.6897,5.6892,5.6911,5.7032,5.7081,5.7165,5.72,5.7197,5.7343,5.732,5.7285,5.7217,5.7348,5.74,5.7422,5.7138,5.7136,5.7134,5.7133,0,0,5.6622,5.6706,5.6734,5.677,5.684,5.6909,5.7007,5.7089,5.7135,5.7197,5.7276,5.7394,5.7361,5.7408,5.7409,5.7475,5.7605,5.7431,5.7433,5.7458,5.7763,5.7786,5.7811,5.7591,5.7595,5.7598,5.7756,0,5.6786,5.6958,5.6964,5.712,5.72,5.7174,5.7259,5.731,5.7331,5.7401,5.7424,5.7506,5.7459,5.7486,5.755,5.7576,5.7666,5.7565,5.7661,5.7664,5.7642,5.7839,5.7864,5.8011,5.7777,5.7781,5.7783,0,5.7002,5.7068,5.7232,5.7286,5.7321,5.7397,5.7469,5.7539,5.7595,5.7605,5.7656,5.7646,5.7743,5.7674,5.7806,5.7737,5.7777,5.7796,5.7801,5.7807,5.7729,5.7846,5.8059,5.8079,5.7816,5.7814,5.7811,0,5.713,5.7261,5.7375,5.7407,5.7476,5.7528,5.7559,5.7611,5.7659,5.7723,5.7753,5.7828,5.7868,5.7925,5.7935,5.7885,5.8065,5.7999,5.8073,5.8073,5.811,5.8107,5.8327,5.8143,5.8143,5.8142,5.8142,0,5.7311,5.7411,5.7433,5.7502,5.7612,5.7617,5.7725,5.7752,5.7798,5.787,5.7854,5.7922,5.7932,5.8002,5.8011,5.8115,5.8135,5.8143,5.8144,5.8143,5.8141,5.8166,5.8154,5.8148,5.8147,5.8146,5.8145,0,5.7473,5.7492,5.7613,5.7667,5.7682,5.776,5.7806,5.7871,5.7889,5.798,5.8002,5.8031,5.8112,5.8128,5.8224,5.8229,5.8353,5.8345,5.8333,5.8331,5.8403,5.8394,5.8644,5.8675,5.8475,5.8477,5.8478,0,5.7585,5.766,5.7722,5.7769,5.7802,5.7878,5.7926,5.7934,5.7983,5.8051,5.8107,5.8186,5.8249,5.838,5.8408,5.848,5.8472,5.8554,5.8482,5.8477,5.8467,5.8461,5.8466,5.8567,5.8569,5.8571,5.8572,0,5.778,5.7785,5.7855,5.7927,5.7983,5.8041,5.8095,5.8134,5.8149,5.8205,5.8287,5.8336,5.8433,5.851,5.8582,5.8612,5.8593,5.8595,5.8615,5.8613,5.8601,5.8603,5.8366,5.8588,5.8587,5.8586,5.8585,5.8584,5.7917,5.7981,5.8033,5.811,5.8151,5.8202,5.8264,5.8289,5.8358,5.8436,5.8437,5.8526,5.8576,5.8671,5.8705,5.8773,5.8746,5.8777,5.8784,5.879,5.8794,5.8593,5.8787,5.8786,5.8786,5.8785,5.8785,0,5.8107,5.8139,5.821,5.8285,5.8344,5.8323,5.8381,5.8431,5.8509,5.8559,5.862,5.8712,5.8787,5.882,5.8892,5.894,5.8933,5.8958,5.8953,5.8959,5.8817,5.8789,5.8962,5.8962,5.8962,5.8962,5.8962,5.8962,5.8213,5.8319,5.8329,5.8454,5.8485,5.8571,5.8605,5.865,5.8689,5.8792,5.8853,5.8875,5.8917,5.8991,5.9057,5.9065,5.909,5.9119,5.9122,5.8988,5.897,5.8952,5.8927,5.9125,5.9126,5.9258,5.9259,5.926]},{"header":{"parameterUnit":"m.s-1","parameterCategory":1,"la1":30.2991,"la2":30.254,"lo1":-89.0895,"lo2":-89.0444,"dy":0.0017,"dx":0.0017,"nx":28,"ny":28,"refTime":"2023-08-09T09:00:00:Z","depth":0,"parameterNumber":3,"parameterNumberName":"V-component_of_WINDS"},"data":[0,0,0,0,0,0,0,0,0,0,0,0,0,0,0,0,0,0,0,0,0,0,0,0,0,0,0,0,0,0,0,0,0,0,0,0,0,0,0,0,0,0,0,0,0,0,0,0,0,0,0,0,0,0,0,0,0,0,4.6254,4.6256,0,4.6391,4.6393,4.6394,4.6371,4.6369,4.6367,4.6364,4.6503,4.6509,4.6515,0,0,0,0,0,0,0,0,0,0,0,0,0,4.597,4.5976,4.6254,4.6256,4.6258,4.6391,4.6393,4.6395,4.6372,4.6369,4.6366,4.6363,4.6501,4.6508,4.6515,0,0,0,0,0,0,0,0,0,0,0,0,0,4.6099,4.5977,4.6254,4.6262,4.6264,4.6391,4.6393,4.6395,4.6372,4.6369,4.6365,4.6362,4.6499,4.6508,4.6516,4.6643,0,0,4.6544,4.6547,0,0,0,0,0,0,0,0,4.6092,4.611,4.6259,4.6262,4.6265,4.6361,4.6344,4.6478,4.6373,4.6331,4.6364,4.636,4.6459,4.6471,4.6504,4.6649,4.6655,4.6544,4.655,4.6554,4.6556,0,0,0,0,0,0,0,4.6083,4.6103,4.6308,4.6262,4.6265,4.6258,4.6273,4.6369,4.6413,4.6335,4.6333,4.635,4.6459,4.6496,4.6507,4.6657,4.6544,4.6552,4.6558,4.6561,4.6911,4.6914,0,0,0,0,0,0,4.6072,4.6096,4.6304,4.6313,4.6168,4.6266,4.6282,4.6333,4.6412,4.6421,4.6353,4.6348,4.6482,4.6497,4.6512,4.6664,4.6554,4.6562,4.6567,4.6907,4.6911,4.6916,0,0,0,0,0,0,4.6066,4.6091,4.6299,4.6204,4.623,4.6275,4.6332,4.6338,4.6374,4.6426,4.6433,4.6382,4.648,4.65,4.661,4.6668,4.6566,4.6574,4.6902,4.6908,4.6914,4.6969,0,0,0,0,0,0,4.6058,4.6089,4.6138,4.6205,4.6235,4.6395,4.6336,4.6343,4.639,4.6385,4.6455,4.6463,4.6479,4.6597,4.6619,4.6678,4.6581,4.6897,4.6905,4.6912,4.6962,4.6976,4.6988,0,0,0,0,0,4.6048,4.6148,4.614,4.6166,4.6298,4.6399,4.6416,4.6432,4.6395,4.6444,4.6477,4.6461,4.6658,4.6608,4.6633,4.6696,4.6893,4.6903,4.6911,4.6956,4.6973,4.6987,0,0,0,0,0,0,4.6086,4.6157,4.6149,4.6275,4.6331,4.6395,4.6457,4.6449,4.6517,4.651,4.6526,4.6542,4.6654,4.6686,4.6629,4.6821,4.6771,4.6785,4.6796,4.6813,4.6825,4.6815,4.6588,0,0,0,0,0,4.6109,4.6186,4.6243,4.6348,4.6377,4.6412,4.6457,4.6464,4.6523,4.6546,4.6587,4.6644,4.6719,4.6768,4.6839,4.6966,4.698,4.7022,4.7035,4.7045,4.7057,4.7124,4.7143,4.6945,4.6945,4.6945,0,0,4.6158,4.6206,4.6253,4.6357,4.6402,4.6479,4.6432,4.6517,4.6575,4.6559,4.6666,4.6698,4.6762,4.6881,4.6935,4.6911,4.7115,4.7056,4.7064,4.7071,4.7136,4.7154,4.7171,4.6951,4.695,4.6949,0,0,4.6285,4.633,4.6422,4.6467,4.6534,4.6557,4.6579,4.6644,4.6664,4.6772,4.6761,4.6829,4.6958,4.7004,4.7044,4.7187,4.7175,4.721,4.7277,4.7343,4.7358,4.7372,4.7422,4.744,4.7222,4.7222,4.7222,0,4.6337,4.6454,4.647,4.6555,4.6601,4.659,4.6681,4.6725,4.6812,4.6843,4.6815,4.6975,4.7018,4.7146,4.7181,4.7214,4.7239,4.7202,4.7355,4.7369,4.7382,4.743,4.7448,4.7226,4.7225,4.7225,4.7224,0,4.6513,4.6595,4.6661,4.6745,4.6798,4.6886,4.6914,4.6965,4.6968,4.6993,4.7101,4.7152,4.7233,4.7264,4.7267,4.7393,4.7375,4.7351,4.73,4.7405,4.7449,4.7468,4.7231,4.723,4.7229,4.7228,0,0,4.667,4.676,4.6784,4.6821,4.6894,4.6957,4.7045,4.7124,4.7167,4.7227,4.73,4.7408,4.7386,4.7431,4.7439,4.7497,4.7605,4.7466,4.7467,4.7489,4.7745,4.7761,4.7782,4.7598,4.7601,4.7604,4.7739,0,4.6803,4.6957,4.6973,4.7111,4.7185,4.7175,4.7251,4.7303,4.7329,4.7395,4.7423,4.7499,4.7465,4.7492,4.7549,4.758,4.7657,4.7571,4.7664,4.7667,4.7647,4.7806,4.7825,4.7949,4.7756,4.7759,4.7762,0,4.698,4.7045,4.719,4.7251,4.7283,4.7351,4.7423,4.7487,4.7546,4.756,4.761,4.7611,4.7699,4.7645,4.7766,4.7707,4.7746,4.7768,4.7773,4.7781,4.772,4.7818,4.7989,4.8007,4.779,4.7787,4.7785,0,4.7077,4.7201,4.7303,4.7336,4.741,4.7457,4.749,4.7546,4.7592,4.7655,4.7685,4.7758,4.7797,4.7853,4.7873,4.7832,4.7992,4.7941,4.8006,4.8005,4.8039,4.8037,4.8219,4.8067,4.8066,4.8066,4.8066,0,4.7224,4.7312,4.7347,4.741,4.7509,4.7525,4.7622,4.7653,4.7702,4.7769,4.7766,4.7829,4.7851,4.7918,4.7934,4.8031,4.8049,4.8062,4.8065,4.8062,4.806,4.8087,4.8078,4.8071,4.807,4.8069,4.8068,0,4.7349,4.7376,4.7487,4.7548,4.7565,4.7635,4.7686,4.7746,4.7771,4.7856,4.7877,4.7915,4.7994,4.8018,4.8113,4.8123,4.8236,4.8232,4.8217,4.8217,4.828,4.8273,4.8485,4.8512,4.8343,4.8345,4.8346,0,4.744,4.7508,4.7576,4.7621,4.7656,4.7729,4.7775,4.7794,4.7842,4.7913,4.7965,4.8042,4.8105,4.8231,4.8266,4.8338,4.8335,4.8404,4.8345,4.834,4.8334,4.8329,4.8335,4.8414,4.8416,4.8418,4.8419,0,4.7598,4.7608,4.7676,4.7748,4.7804,4.7862,4.7917,4.7954,4.7981,4.8035,4.8115,4.8164,4.8261,4.8337,4.841,4.8443,4.8435,4.8437,4.8456,4.8453,4.844,4.8446,4.8245,4.8432,4.8431,4.843,4.8429,4.8428,4.7709,4.7768,4.7824,4.7899,4.7943,4.7995,4.8054,4.8085,4.8152,4.8232,4.8239,4.8325,4.838,4.8477,4.8514,4.8581,4.8561,4.8588,4.8595,4.8601,4.8605,4.843,4.8594,4.8594,4.8594,4.8593,4.8593,0,4.7865,4.7901,4.797,4.8048,4.8106,4.8094,4.8155,4.8204,4.828,4.8333,4.8395,4.8486,4.856,4.86,4.8674,4.8719,4.8717,4.8738,4.8734,4.8742,4.862,4.8596,4.8738,4.8738,4.8738,4.8738,4.8738,4.8738,4.7954,4.8053,4.8069,4.8189,4.8224,4.8309,4.8344,4.8391,4.8433,4.8535,4.8596,4.8623,4.867,4.8747,4.8813,4.8823,4.885,4.8872,4.888,4.8765,4.875,4.8736,4.8713,4.8878,4.8879,4.8996,4.8997,4.8998]}]]